HG2HNB-13 Weather Reports


time (UTC)temp
C
wind
direction
speed
KPH
gust
KPH
rain 1hr
cm
rain 24hr
cm
rain mn
cm
humidity
%
barometer
mb
20260506080729 17 225 17.7 25.7 0.00 0.00 0.00 47 1010.8
20260506072748 16 225 24.1 32.2 0.00 0.00 0.00 51 1010.9
20260506071713 16 225 24.1 35.4 0.00 0.00 0.00 51 1011.1
20260506070608 16 225 20.9 25.7 0.00 0.00 0.00 51 1010.9
20260506061633 15 225 24.1 30.6 0.00 0.00 0.00 53 1011.0
20260506060609 15 270 24.1 32.2 0.00 0.00 0.00 54 1010.9
20260506050649 13 180 25.7 35.4 0.00 0.00 0.00 56 1010.6
20260506044709 13 270 19.3 27.4 0.00 0.00 0.00 57 1010.5
20260506043633 13 225 16.1 25.7 0.00 0.00 0.00 57 1010.6
20260506042628 13 180 17.7 24.1 0.00 0.00 0.00 57 1010.4
20260506041632 13 225 17.7 24.1 0.00 0.00 0.00 57 1010.5
20260506040605 13 225 17.7 22.5 0.00 0.00 0.00 57 1010.3
20260506035629 13 225 17.7 24.1 0.00 0.00 0.00 57 1010.3
20260506034605 13 225 24.1 30.6 0.00 0.00 0.00 56 1010.0
20260506033709 13 225 27.4 32.2 0.00 0.00 0.00 55 1009.7
20260506032625 13 225 25.7 37.0 0.00 0.00 0.00 55 1009.8
20260506031629 13 180 29.0 37.0 0.00 0.00 0.00 55 1009.6
20260506030625 13 225 27.4 33.8 0.00 0.00 0.00 54 1009.7
20260506025629 13 135 27.4 35.4 0.00 0.00 0.00 55 1009.8
20260506024605 13 180 22.5 27.4 0.00 0.00 0.00 55 1009.7
20260506023709 13 270 20.9 27.4 0.00 0.00 0.00 54 1009.8
20260506022605 14 180 19.3 29.0 0.00 0.00 0.00 54 1009.8
20260506021629 14 180 24.1 29.0 0.00 0.00 0.00 54 1009.9
20260506020725 14 225 27.4 33.8 0.00 0.00 0.00 54 1009.7
20260506015629 14 225 24.1 29.0 0.00 0.00 0.00 53 1009.8
20260506014645 14 270 22.5 29.0 0.00 0.00 0.00 54 1009.9
20260506013649 14 180 24.1 27.4 0.00 0.00 0.00 53 1010.1
20260506012645 14 225 16.1 20.9 0.00 0.00 0.00 54 1010.1
20260506011629 14 225 19.3 24.1 0.00 0.00 0.00 53 1010.0
20260506010625 15 180 24.1 29.0 0.00 0.00 0.00 53 1010.1
20260506005709 15 180 35.4 43.5 0.00 0.00 0.00 52 1009.9
20260506004645 15 225 27.4 35.4 0.00 0.00 0.00 53 1010.0
20260506003649 15 225 24.1 27.4 0.00 0.00 0.00 52 1009.8
20260506002645 15 225 27.4 37.0 0.00 0.00 0.00 52 1009.5
20260506001709 15 225 24.1 33.8 0.00 0.00 0.00 52 1009.5
20260506000605 15 293 24.1 30.6 0.00 0.00 0.00 51 1009.9
20260505235649 15 225 24.1 27.4 0.00 0.00 0.00 51 1009.9
20260505234605 15 270 22.5 29.0 0.00 0.00 0.00 51 1010.1
20260505233709 15 225 25.7 33.8 0.00 0.00 0.00 51 1009.8
20260505232605 15 225 29.0 37.0 0.00 0.00 0.00 51 1010.1
20260505231629 15 180 22.5 27.4 0.00 0.00 0.00 51 1010.1
20260505230645 15 225 24.1 35.4 0.00 0.00 0.00 51 1010.1
20260505225629 15 225 25.7 37.0 0.00 0.00 0.00 51 1010.4
20260505224625 15 225 24.1 30.6 0.00 0.00 0.00 51 1010.4
20260505223629 15 225 24.1 32.2 0.00 0.00 0.00 50 1010.6
20260505222605 15 315 20.9 27.4 0.00 0.00 0.00 50 1010.6
20260505221629 16 225 17.7 25.7 0.00 0.00 0.00 51 1010.5
20260505220625 16 225 17.7 24.1 0.00 0.00 0.00 50 1010.5
20260505215628 16 225 27.4 33.8 0.00 0.00 0.00 50 1010.7
20260505214605 16 225 16.1 24.1 0.00 0.00 0.00 50 1010.7
20260505213629 16 225 24.1 37.0 0.00 0.00 0.00 50 1010.5
20260505212705 16 225 24.1 29.0 0.00 0.00 0.00 50 1010.7
20260505211629 16 225 24.1 32.2 0.00 0.00 0.00 50 1010.7
20260505210625 16 225 20.9 24.1 0.00 0.00 0.00 48 1010.6
20260505205649 16 225 17.7 24.1 0.00 0.00 0.00 47 1010.6
20260505204625 16 180 19.3 27.4 0.00 0.00 0.00 46 1010.7
20260505203649 16 225 27.4 32.2 0.00 0.00 0.00 45 1010.8
20260505202625 16 225 20.9 27.4 0.00 0.00 0.00 45 1010.7
20260505201629 16 225 22.5 27.4 0.00 0.00 0.00 44 1010.8
20260505200645 16 225 24.1 29.0 0.00 0.00 0.00 44 1010.7
20260505195629 17 225 25.7 33.8 0.00 0.00 0.00 44 1010.6
20260505193649 17 180 24.1 30.6 0.00 0.00 0.00 44 1010.6
20260505192645 17 225 24.1 27.4 0.00 0.00 0.00 44 1010.7
20260505191649 17 315 32.2 43.5 0.00 0.00 0.00 44 1010.6
20260505190625 17 180 25.7 33.8 0.00 0.00 0.00 41 1010.6
20260505185629 17 270 27.4 30.6 0.00 0.00 0.00 41 1010.6
20260505184605 17 180 30.6 49.9 0.00 0.00 0.00 42 1010.7
20260505183629 17 225 30.6 43.5 0.00 0.00 0.00 42 1010.3
20260505182645 18 180 27.4 30.6 0.00 0.00 0.00 41 1010.3
20260505181629 18 225 29.0 37.0 0.00 0.00 0.00 41 1010.6
20260505180605 18 225 27.4 33.8 0.00 0.00 0.00 40 1010.6
20260505175629 18 225 22.5 33.8 0.00 0.00 0.00 40 1010.6
20260505174625 18 270 24.1 30.6 0.00 0.00 0.00 40 1010.6
20260505173649 18 225 24.1 30.6 0.00 0.00 0.00 40 1010.7
20260505172625 19 248 19.3 35.4 0.00 0.00 0.00 40 1010.7
20260505171649 19 225 30.6 45.1 0.00 0.00 0.00 40 1010.6
20260505170625 19 180 32.2 45.1 0.00 0.00 0.00 40 1010.9
20260505165649 20 0 24.1 30.6 0.00 0.00 0.00 38 1010.7
20260505164645 20 270 24.1 33.8 0.00 0.00 0.00 37 1010.6
20260505163629 20 293 25.7 35.4 0.00 0.00 0.00 36 1010.8
20260505162605 20 225 27.4 37.0 0.00 0.00 0.00 34 1010.8
20260505161649 20 180 24.1 33.8 0.00 0.00 0.00 34 1010.8
20260505160645 20 180 24.1 30.6 0.00 0.00 0.00 33 1011.1
20260505152705 21 225 19.3 25.7 0.00 0.00 0.00 33 1010.8
20260505151709 21 270 22.5 25.7 0.00 0.00 0.00 33 1011.0
20260505150605 22 225 20.9 27.4 0.00 0.00 0.00 32 1010.9
20260505140645 23 225 25.7 35.4 0.00 0.00 0.00 28 1011.1
20260505124645 25 180 24.1 32.2 0.00 0.00 0.00 25 1011.6
20260505123709 25 225 20.9 32.2 0.00 0.00 0.00 24 1011.7
20260505122605 25 270 22.5 27.4 0.00 0.00 0.00 23 1011.8
20260505121629 25 225 27.4 33.8 0.00 0.00 0.00 23 1011.9
20260505120625 25 225 24.1 33.8 0.00 0.00 0.00 24 1012.0
20260505115649 25 180 19.3 27.4 0.00 0.00 0.00 25 1012.1
20260505114625 25 225 24.1 25.7 0.00 0.00 0.00 24 1012.0
20260505113649 23 270 17.7 27.4 0.00 0.00 0.00 26 1012.0
20260505112605 23 180 17.7 22.5 0.00 0.00 0.00 29 1012.1
20260505111629 23 225 14.5 20.9 0.00 0.00 0.00 30 1012.3
20260505110605 23 180 17.7 20.9 0.00 0.00 0.00 30 1012.4
20260505101629 22 225 20.9 25.7 0.00 0.00 0.00 32 1012.6
20260505100605 21 270 14.5 17.7 0.00 0.00 0.00 33 1012.8
20260505095649 21 248 19.3 24.1 0.00 0.00 0.00 33 1012.8
20260505094605 21 180 12.9 14.5 0.00 0.00 0.00 34 1013.1
20260505093629 21 248 11.3 14.5 0.00 0.00 0.00 33 1013.1
20260505092705 22 225 17.7 24.1 0.00 0.00 0.00 32 1012.9
20260505091635 22 248 19.3 29.0 0.00 0.00 0.00 34 1013.0
20260505090645 22 180 16.1 19.3 0.00 0.00 0.00 34 1013.0
20260505085629 22 315 24.1 27.4 0.00 0.00 0.00 33 1013.1
20260505084625 21 225 20.9 27.4 0.00 0.00 0.00 33 1012.9
20260505083709 21 225 27.4 35.4 0.00 0.00 0.00 33 1013.0
20260505082300 21 225 27.4 32.2 0.00 0.00 0.00 35 1013.0